Wind_Speed
63 68 67 65 62 58 57 55 53 52 52 51 49 49 48 47 45 42 40 39 39 39 38 36 35 36 35 32 32 32 30 27 26 25 24 23 22 22 21 20 18 16 15 14 13 13 13 13 14 13 12 12 11 12 12 12 11 12 12 11 11 10 11 11 12 12 12 12 12 13 13 13 13 13 13 13 13 13 14 14 14 15 15 16 17 18
63 69 68 64 60 57 56 55 53 53 54 53 50 49 48 47 44 42 41 41 41 40 39 39 39 39 36 33 33 33 30 27 27 26 25 24 23 22 22 21 19 17 17 16 15 15 14 14 15 14 13 13 13 13 13 13 13 12 13 13 13 12 12 13 13 13 13 14 14 14 15 15 14 14 14 15 15 15 16 16 17 17 17 18 19 19
64 66 67 63 59 56 55 55 53 53 54 53 52 50 49 48 46 45 44 44 44 43 42 42 41 39 38 35 34 33 30 29 29 27 26 26 25 24 23 22 21 19 19 18 17 16 15 15 15 15 15 15 15 15 15 15 15 14 14 14 15 14 14 14 14 15 15 16 16 16 16 17 17 17 17 17 17 18 18 19 19 20 20 20 21 21
64 64 66 63 58 56 56 55 54 54 55 54 53 52 50 49 48 47 46 45 45 45 44 44 42 40 39 37 35 33 32 31 30 28 28 27 26 25 24 23 22 21 20 19 18 17 16 17 17 17 17 16 16 17 17 17 17 16 16 16 16 16 17 17 17 17 17 18 18 18 18 19 19 19 20 20 20 21 22 22 22 22 22 22 23 24
62 66 67 63 59 58 57 55 55 55 55 55 54 52 50 50 49 47 45 45 46 46 46 45 43 42 40 38 36 35 34 33 32 30 30 29 27 26 25 24 23 22 21 20 19 18 18 18 18 18 18 18 18 18 18 19 19 19 19 18 18 18 18 19 19 19 19 20 20 20 21 21 21 22 22 22 23 24 24 25 25 25 25 25 26 26
61 69 68 63 60 59 58 57 56 56 55 55 55 52 50 49 49 47 46 46 47 48 47 46 45 43 41 39 38 37 37 35 33 32 31 30 28 27 26 25 24 23 23 22 21 20 19 19 19 19 20 20 20 20 20 20 20 21 21 21 20 20 20 21 21 22 22 22 22 22 23 23 24 24 25 25 25 26 26 27 27 28 28 28 29 29
61 70 70 63 61 60 59 58 57 56 55 56 55 52 50 49 48 46 46 46 48 48 47 47 46 44 42 41 40 39 38 36 35 34 33 31 29 28 27 26 25 24 23 23 22 21 21 21 20 21 21 21 21 21 21 21 22 22 22 22 22 22 22 23 23 24 24 24 24 24 24 25 26 27 27 27 28 28 28 29 29 30 30 31 32 32
61 71 72 65 61 60 59 59 58 57 56 55 54 51 49 49 47 46 45 46 48 48 48 48 48 46 44 43 42 41 39 37 36 34 33 31 30 29 28 27 27 26 25 24 23 22 22 22 22 22 22 22 22 22 22 22 23 23 23 24 24 24 24 24 25 25 25 25 25 25 26 27 28 29 29 29 30 31 31 31 31 32 33 34 34 35
58 71 73 67 63 62 60 59 59 57 56 55 53 51 49 48 47 45 45 47 49 49 50 49 49 48 46 43 43 42 40 38 36 34 33 32 32 31 30 29 29 27 26 25 24 24 24 24 24 23 23 23 23 23 23 23 24 24 25 25 25 25 25 26 26 27 27 26 26 26 27 28 29 30 30 31 32 33 33 33 34 34 35 36 37 38
58 71 74 69 64 63 62 60 58 56 54 53 52 51 51 49 48 46 47 49 51 51 51 50 50 50 48 44 43 43 41 39 37 36 35 34 33 32 31 31 30 29 28 27 26 26 25 25 25 25 24 24 24 24 24 24 25 25 26 26 27 27 27 27 27 27 27 27 27 28 28 29 30 31 32 33 34 35 35 35 36 37 37 38 39 40
57 69 73 71 66 64 63 60 57 55 53 52 52 53 53 52 50 48 49 50 52 53 52 50 50 51 50 46 45 44 42 39 39 38 36 34 34 33 33 32 31 30 29 28 27 27 26 26 26 26 25 25 25 25 25 25 25 26 26 27 28 28 28 28 28 29 29 29 29 29 30 31 32 33 34 34 35 36 37 38 38 39 40 40 41 42
56 67 72 72 68 66 64 59 55 53 53 54 54 54 54 52 50 49 50 51 54 55 53 51 51 53 53 49 46 45 43 41 40 39 37 35 35 35 34 33 32 31 30 29 28 27 27 27 27 27 26 26 25 25 25 25 25 26 26 27 28 28 29 29 30 30 31 31 31 31 32 33 34 34 35 36 37 37 38 39 40 41 41 42 43 43
54 64 70 72 69 66 63 58 55 54 55 55 55 56 55 53 52 51 53 54 56 57 54 52 53 54 55 51 47 45 43 42 40 39 37 37 37 37 36 35 34 33 31 30 29 28 28 27 27 27 27 26 26 25 25 25 25 26 26 27 28 29 29 30 31 32 32 33 34 34 34 35 36 36 37 37 38 39 39 40 41 42 43 43 44 44
50 62 70 72 69 65 61 57 56 56 56 56 56 56 56 56 55 54 56 57 57 57 55 53 54 56 56 52 48 46 44 42 41 39 38 38 38 39 37 36 34 33 32 31 30 29 29 29 29 29 28 27 27 26 26 26 26 27 27 28 29 29 30 30 31 32 33 34 35 36 37 37 38 38 38 39 39 40 41 42 42 43 44 44 45 45
45 55 66 72 70 66 61 57 55 54 53 54 55 55 55 55 54 54 55 56 56 55 54 54 55 56 56 53 48 46 44 43 41 41 40 39 39 39 38 37 35 34 33 32 31 30 30 30 31 30 30 29 28 28 27 27 27 28 28 29 29 30 30 31 32 33 33 35 36 37 38 39 39 40 40 41 41 42 42 43 44 44 45 45 45 46
42 50 61 70 71 66 60 56 55 53 52 53 54 54 55 56 54 53 53 54 54 54 55 56 57 57 56 53 48 46 46 44 42 41 41 40 40 39 38 37 36 35 34 33 33 32 32 32 32 32 31 30 30 29 29 29 29 29 29 30 30 30 31 31 32 33 34 35 37 38 39 40 41 41 42 43 44 44 44 45 45 45 45 46 46 47
42 48 58 67 70 65 59 57 55 55 55 56 57 57 56 56 56 54 54 55 55 56 57 58 58 57 55 54 50 48 47 45 43 41 41 40 40 39 39 37 37 36 36 35 35 34 33 33 33 32 32 31 31 30 30 30 30 30 30 30 30 31 31 32 33 34 35 36 38 39 40 41 42 42 43 44 45 45 45 46 46 46 47 47 48 49
42 46 55 65 68 63 59 57 56 56 56 57 58 57 55 55 55 55 55 56 56 58 59 58 57 56 56 55 52 49 46 44 42 41 41 41 40 39 39 39 39 38 38 37 36 35 34 34 33 33 33 32 32 32 31 31 31 31 31 31 31 32 32 33 34 35 37 38 39 40 41 42 43 43 44 45 45 46 46 46 47 47 48 48 49 49
44 48 56 63 65 62 58 56 56 56 56 56 56 55 53 53 55 56 55 56 57 58 59 59 57 57 56 55 51 47 44 42 42 41 41 41 41 41 41 40 40 40 40 39 38 37 36 35 35 34 34 33 33 33 33 33 32 32 32 32 32 32 33 34 35 37 38 39 40 41 42 43 44 44 45 46 46 46 47 47 47 47 48 48 48 49
45 50 55 60 62 61 58 56 56 56 55 56 56 54 53 53 54 55 55 55 56 56 58 59 58 57 55 53 50 46 43 42 41 41 40 41 42 42 42 41 41 41 41 40 39 38 37 37 36 36 36 36 35 35 35 34 33 33 33 33 33 34 35 36 37 38 39 40 41 42 43 43 44 45 45 46 46 46 46 46 46 47 47 48 48 49
46 49 52 57 60 60 59 59 57 55 53 53 53 53 53 53 53 53 53 54 54 55 57 58 59 58 54 51 49 46 43 41 41 40 41 41 42 42 43 43 42 41 41 40 40 39 39 38 38 38 38 38 37 36 35 35 34 34 34 35 35 36 37 38 39 39 40 41 42 43 44 44 45 45 45 45 45 45 45 45 46 46 47 48 49 50
47 48 50 53 56 58 59 58 55 52 51 50 50 50 50 49 49 50 52 53 54 54 55 56 58 58 54 51 48 46 43 40 39 40 40 41 41 42 42 43 42 42 41 40 40 40 40 40 40 40 39 38 37 37 36 35 35 36 36 37 38 39 40 40 41 41 42 43 44 45 46 46 46 46 46 45 45 45 46 46 47 48 49 50 51 52
48 49 49 50 52 54 56 55 53 51 51 50 50 49 48 48 49 49 51 52 52 52 53 54 56 57 54 51 49 45 43 40 38 39 39 40 40 40 41 42 41 41 41 41 41 41 41 41 41 40 39 38 38 37 37 37 38 38 39 40 41 41 41 42 42 43 44 45 46 47 47 47 47 47 47 47 47 47 47 48 49 50 51 52 53 54
48 49 49 48 49 51 52 52 51 51 51 51 52 51 51 51 50 49 50 50 49 50 49 50 55 56 52 50 48 45 42 39 38 38 39 39 39 39 40 40 40 41 42 42 42 42 42 41 40 40 39 38 38 38 39 40 41 42 42 42 42 42 43 43 44 45 46 47 48 48 48 48 48 48 48 48 48 49 49 50 51 52 53 54 55 57
47 50 51 50 50 53 54 55 56 57 57 57 56 55 54 52 50 49 49 48 49 50 48 49 55 55 47 45 46 43 41 38 36 37 38 38 39 39 39 40 41 42 42 42 42 41 41 40 40 40 40 40 41 41 42 43 43 44 43 43 43 44 44 45 46 47 48 48 48 48 48 48 48 48 49 49 50 50 51 52 53 54 55 57 58 59
45 48 50 52 54 57 58 59 61 62 63 61 59 57 55 52 50 48 47 47 48 49 48 49 53 50 41 41 43 41 40 40 37 36 36 37 38 40 41 42 42 42 42 42 41 41 41 41 41 41 42 43 43 44 44 44 44 44 44 44 45 45 46 47 48 48 48 49 49 48 49 49 49 50 50 51 51 52 53 54 55 56 57 59 60 61
43 46 48 50 53 55 55 55 54 54 54 55 54 52 51 51 49 48 48 49 48 47 48 49 49 47 42 42 43 40 39 40 38 37 37 37 39 41 43 43 43 42 41 41 41 41 41 41 42 43 44 44 44 44 44 44 45 45 45 46 47 47 48 49 49 49 50 50 50 50 51 51 52 52 53 53 54 55 56 57 58 59 60 61 62 64
45 47 48 49 50 51 51 50 49 48 48 48 48 48 48 48 49 49 50 50 48 49 51 49 48 49 48 45 44 41 39 40 40 40 41 41 42 43 42 42 41 41 41 41 41 42 42 43 44 45 45 45 45 45 45 46 46 47 48 48 49 49 50 51 51 51 51 51 52 52 53 54 54 55 56 57 58 58 59 60 61 62 63 64 65 66
46 47 47 47 48 49 50 50 51 50 50 50 50 49 49 49 50 50 50 49 48 51 54 50 49 52 51 46 44 43 42 42 42 43 44 45 44 44 42 41 42 42 43 43 44 45 46 46 47 46 46 46 46 47 47 48 49 49 50 50 50 51 51 51 51 52 52 53 54 55 55 56 57 58 59 60 61 62 62 63 63 64 65 66 67 68
45 46 47 47 47 48 49 50 51 52 53 53 53 53 53 52 52 53 52 52 52 54 55 53 52 55 53 48 46 46 45 44 45 46 46 45 44 45 44 44 45 46 46 47 47 48 48 48 48 48 48 48 49 49 50 50 50 50 50 51 51 52 52 52 53 53 54 55 56 57 58 59 60 61 62 62 63 63 64 64 65 66 67 67 68 70
45 47 47 47 47 49 49 49 51 52 53 54 55 55 55 55 55 56 57 57 57 58 57 56 57 57 53 50 48 49 49 49 49 49 48 46 46 47 47 48 48 48 48 48 48 48 48 49 49 49 50 50 50 51 51 51 51 51 51 52 53 53 53 54 55 56 57 58 59 60 61 61 62 63 63 64 64 65 65 66 66 67 68 69 70 71
47 48 48 47 48 48 48 49 50 51 52 54 56 55 56 56 57 57 57 57 57 58 56 57 59 57 53 50 49 50 52 52 51 50 49 48 48 48 48 48 49 49 50 50 50 50 50 50 50 50 50 51 51 51 51 52 52 53 53 54 55 55 56 57 58 59 60 60 61 62 62 63 63 64 65 65 66 66 67 67 68 69 70 71 71 72
48 49 48 48 48 47 48 49 49 51 54 53 50 49 51 53 54 55 55 55 55 55 56 56 56 53 50 49 49 50 53 53 51 50 50 49 49 50 50 51 51 51 51 51 51 52 51 51 51 51 51 52 52 53 53 54 55 55 56 56 57 58 59 59 60 61 61 61 62 62 63 64 65 66 67 67 68 68 68 69 69 70 71 71 72 72
49 48 48 49 49 49 50 50 51 55 54 45 40 43 47 49 51 53 53 52 53 54 55 54 52 50 51 51 50 51 53 53 52 52 52 52 53 53 53 53 53 53 53 53 53 52 52 52 52 53 53 54 54 54 55 56 57 57 58 59 60 60 60 61 61 61 62 63 63 64 66 66 67 68 68 69 70 70 70 70 70 71 71 71 72 72
47 48 49 49 49 49 49 49 53 57 51 41 40 44 47 49 51 52 51 51 52 54 55 54 52 51 52 52 51 52 53 53 54 55 55 55 55 55 54 53 53 53 54 54 54 54 54 54 54 55 55 55 56 56 57 58 59 59 60 60 61 61 61 61 62 63 64 65 66 66 67 68 68 69 69 70 70 70 70 70 71 71 72 72 72 72
44 44 45 46 47 48 48 49 51 51 47 44 44 45 46 49 50 51 52 53 53 55 56 54 52 51 52 53 53 53 55 56 57 57 56 56 56 55 54 53 53 54 55 56 56 56 57 57 57 57 57 58 58 58 59 60 60 61 61 61 61 62 62 63 64 65 66 66 67 67 68 69 69 69 70 70 70 70 70 70 71 71 71 72 72 73
43 43 42 43 44 45 46 47 46 46 45 45 44 43 43 45 46 50 54 54 53 55 56 55 53 53 54 54 54 56 57 58 59 58 57 57 57 56 56 56 56 57 57 57 58 58 58 58 58 58 59 59 60 60 61 62 62 62 62 63 64 64 65 66 66 67 67 67 68 68 68 69 69 69 69 69 69 70 70 70 70 71 71 72 72 73
45 44 43 44 44 43 44 45 44 45 45 42 41 40 38 38 39 44 50 52 50 52 55 56 55 55 55 55 55 57 58 60 61 58 56 57 58 57 57 58 58 59 59 59 60 60 60 60 60 60 61 62 62 62 63 63 64 64 65 65 66 66 67 67 67 67 67 67 68 68 68 68 68 68 68 68 69 69 69 69 70 71 71 72 73 73
45 45 44 45 45 45 45 46 46 46 42 38 38 38 38 38 36 38 45 47 45 46 50 52 54 55 55 55 55 56 58 61 61 58 55 56 58 58 59 60 61 61 61 61 62 62 62 62 62 63 63 63 64 64 65 66 66 66 67 67 67 67 67 67 67 67 67 67 67 68 68 68 68 68 68 68 68 68 69 70 71 72 72 73 73 73
46 46 46 46 46 46 46 46 47 45 41 38 39 39 40 40 39 41 45 43 42 42 42 45 51 54 55 55 56 56 58 59 59 58 58 58 59 60 61 62 62 63 63 63 63 63 63 64 64 64 64 65 66 67 67 68 68 67 67 67 67 66 66 66 66 66 66 67 67 67 67 67 67 67 67 68 68 69 70 71 72 72 72 72 73 73
47 47 47 46 45 46 46 46 46 45 42 40 40 41 42 42 43 46 45 42 43 43 39 40 47 50 52 56 57 57 58 59 60 60 61 61 61 61 62 63 64 64 64 64 65 65 66 66 66 67 67 68 68 68 68 68 67 66 66 65 65 65 64 65 65 65 65 66 65 66 66 66 66 67 68 68 69 70 71 72 72 72 72 73 73 74
48 48 49 48 47 47 46 46 47 45 42 41 42 44 46 46 47 46 42 41 43 43 40 42 44 44 47 52 55 57 59 60 61 62 63 64 64 65 65 66 67 67 67 68 68 68 69 69 69 69 68 68 68 68 67 66 65 65 64 64 63 63 64 64 64 64 65 65 65 65 66 66 67 68 69 69 70 71 71 71 71 72 72 74 75 76
49 50 50 49 48 48 49 49 48 45 42 42 43 45 47 48 47 44 43 43 43 43 43 45 45 45 47 48 50 53 56 58 60 62 63 65 66 66 67 68 69 69 69 68 68 67 67 66 66 66 66 65 65 65 64 64 64 63 63 63 63 63 64 64 64 65 65 65 66 66 67 67 68 68 69 70 70 70 70 70 71 73 74 76 77 79
53 52 52 51 50 51 53 51 47 43 42 43 43 45 47 49 49 48 47 47 47 46 46 47 49 50 50 49 50 52 53 54 57 58 59 62 63 63 65 65 66 66 65 65 64 63 63 63 63 63 63 63 63 63 63 63 63 63 63 63 64 64 64 64 65 65 65 66 66 67 67 67 68 68 69 69 69 69 70 72 74 75 77 78 80 81
56 54 54 53 53 54 54 52 47 45 47 47 47 48 51 53 53 54 53 52 52 51 50 50 51 53 53 53 54 53 53 55 56 56 58 59 60 60 61 61 62 62 62 63 63 62 62 62 62 62 62 62 62 63 63 63 63 63 63 64 64 64 64 65 65 65 65 65 65 66 66 66 67 67 68 69 70 71 73 75 76 78 79 80 81 82
58 57 56 56 56 57 57 54 51 51 52 52 52 54 56 56 57 57 57 56 56 55 53 53 53 53 54 55 55 54 54 55 55 57 58 59 59 60 60 60 61 61 62 62 62 62 62 62 62 62 62 62 63 63 63 63 63 63 63 63 63 63 63 63 63 63 63 63 64 64 65 66 67 68 70 71 73 74 75 77 78 80 81 82 82 82
58 59 60 60 60 60 60 57 55 55 56 56 57 58 59 60 60 59 59 59 58 57 56 55 54 54 55 55 55 55 55 54 55 56 57 57 58 59 59 60 60 60 61 62 62 62 63 62 62 62 62 62 62 62 62 62 62 62 62 62 62 62 62 61 61 61 62 63 64 65 67 68 69 71 72 74 75 76 77 79 80 81 81 81 81 81
58 59 61 61 62 62 61 59 58 59 59 60 60 61 62 63 62 61 60 60 59 59 58 57 56 55 55 55 56 56 56 56 55 55 56 57 58 58 58 59 59 59 60 60 60 61 61 61 61 61 61 61 61 61 61 61 61 61 61 61 61 61 61 61 61 62 64 65 66 67 69 70 71 72 74 75 76 77 78 79 80 80 80 80 80 81
59 59 60 60 62 62 61 60 60 60 61 61 61 62 62 63 62 62 61 60 59 59 59 58 57 56 55 54 54 54 55 55 55 55 56 56 56 57 57 57 57 57 57 58 58 59 59 60 60 60 60 61 60 60 60 60 60 60 60 60 60 60 61 62 63 64 65 66 68 69 71 72 73 74 75 76 77 77 78 78 78 79 79 80 80 82
59 60 59 60 61 62 61 60 60 60 60 60 60 60 61 62 62 62 61 60 60 59 58 58 57 56 55 54 54 54 54 55 55 55 55 55 55 56 56 56 56 56 56 57 57 58 59 60 60 61 61 61 61 61 61 60 60 61 61 61 62 62 63 64 64 65 66 68 70 71 72 73 73 74 74 75 75 76 77 77 78 78 79 80 81 83
58 58 59 60 61 60 60 60 59 59 59 59 59 59 60 61 62 62 62 61 60 59 58 58 57 57 57 57 56 56 57 57 57 56 56 56 56 56 57 57 58 58 58 58 59 59 60 60 61 61 61 61 61 61 61 61 61 62 62 63 63 64 64 65 66 68 70 71 71 72 72 72 73 73 73 74 75 76 77 78 78 79 80 81 82 83
Wind_Direction
203 198 197 197 197 198 198 199 200 200 204 207 208 209 210 209 209 208 209 210 210 211 210 207 207 209 208 210 217 218 216 214 215 216 218 221 222 223 225 225 224 223 222 222 224 228 229 232 239 245 250 254 255 256 259 262 265 271 276 277 276 277 276 275 277 279 278 276 275 276 277 277 278 279 282 285 287 289 289 289 289 289 288 288 290 291
204 201 198 197 197 199 199 200 200 201 204 206 206 209 210 210 208 208 209 212 212 212 212 210 210 211 210 209 216 220 218 219 221 221 222 224 225 226 226 226 224 222 221 222 226 230 233 236 241 245 249 253 256 258 261 263 265 268 272 275 276 276 276 276 278 278 277 275 275 275 275 276 277 278 279 281 283 285 285 285 285 285 285 288 290 292
205 202 199 197 198 200 201 201 201 203 205 206 206 207 209 209 208 207 208 212 213 213 214 213 211 213 214 211 215 220 221 222 224 224 225 226 226 226 226 226 225 224 224 225 227 230 235 240 244 247 249 252 257 261 263 265 267 267 268 271 274 275 274 274 275 274 274 274 275 274 275 277 278 279 279 280 282 282 282 282 283 285 287 290 292 293
209 203 198 198 199 200 202 202 202 204 206 207 206 207 208 208 209 208 209 212 215 215 216 216 213 214 216 214 215 220 223 225 226 226 226 226 225 225 225 225 226 227 227 228 230 232 235 241 246 249 252 254 257 261 264 267 270 269 268 267 269 271 272 272 272 272 272 273 274 274 275 276 277 279 280 280 281 281 282 284 285 288 290 291 292 292
211 203 198 200 200 200 203 203 203 204 206 207 207 207 207 209 210 210 210 212 215 217 217 218 217 215 218 218 216 219 223 225 225 225 225 225 225 225 225 226 227 227 229 230 233 236 237 239 244 248 253 256 258 260 262 266 269 270 270 269 268 269 270 272 272 272 273 273 273 274 274 275 276 277 278 279 280 281 284 286 289 290 290 290 290 291
211 203 199 201 200 200 203 204 204 205 207 208 208 208 208 210 212 211 211 213 215 219 218 219 219 217 219 221 219 219 221 222 223 223 223 224 224 225 228 229 229 229 231 233 234 238 240 242 244 247 250 254 256 258 259 261 264 267 270 271 271 270 270 271 271 272 273 273 273 274 274 275 276 276 278 279 280 281 283 284 286 288 289 290 290 291
212 203 199 201 201 201 203 204 205 206 208 210 209 208 208 211 212 212 213 214 216 219 220 220 221 219 219 222 222 222 221 220 221 222 222 223 224 226 229 231 232 233 234 236 238 240 243 245 247 249 250 252 254 256 258 260 262 265 268 270 270 270 270 270 271 271 271 272 273 274 274 275 275 276 278 280 281 281 281 282 283 285 286 287 288 288
213 204 200 201 201 202 204 205 206 206 208 211 210 209 209 212 213 213 214 216 217 219 221 221 222 221 219 221 223 223 223 221 221 222 223 225 226 227 230 232 234 235 236 237 240 242 245 248 248 250 252 254 256 258 260 262 263 264 265 266 267 267 267 268 269 270 270 271 272 273 274 275 276 277 279 280 279 279 280 280 282 282 283 284 285 286
214 207 201 201 202 202 204 206 207 207 208 210 210 210 210 211 214 214 215 218 219 220 221 222 223 224 221 221 224 224 223 223 222 223 225 227 228 229 231 233 235 236 237 238 239 241 244 247 249 250 252 255 258 260 262 262 263 264 264 265 266 266 265 266 266 268 270 271 272 273 273 273 274 276 276 277 277 277 278 279 280 280 281 282 284 285
215 208 202 201 202 202 204 206 208 208 209 210 210 210 211 211 213 215 216 218 220 221 221 222 224 226 224 221 224 225 224 224 224 223 224 227 230 233 233 234 235 237 238 239 240 241 243 245 248 249 252 255 257 260 261 263 264 265 266 267 268 268 267 267 267 269 270 271 271 271 271 272 273 273 274 274 275 276 277 278 279 280 281 283 284 285
215 209 204 202 202 202 204 206 208 208 210 210 210 211 212 212 213 215 218 219 222 223 223 223 225 228 227 222 223 226 225 223 225 225 225 226 230 234 236 237 238 239 240 241 242 243 243 244 246 248 251 254 257 259 261 263 264 265 267 268 268 269 269 270 270 271 271 272 272 272 273 273 274 274 275 275 276 277 278 279 280 281 282 283 284 286
216 210 205 202 202 203 205 206 207 208 210 210 210 212 214 214 214 216 219 220 223 224 223 224 226 228 229 224 222 225 225 223 225 228 228 228 230 233 235 238 241 243 244 246 247 247 247 246 246 248 251 254 256 259 261 263 264 265 267 267 268 269 271 271 272 273 274 275 275 276 276 276 276 276 277 277 278 279 280 280 281 281 282 283 284 285
217 212 207 203 203 204 205 206 206 207 210 211 211 212 213 215 216 217 220 221 223 224 224 224 226 229 230 227 224 224 225 225 226 229 231 232 233 234 235 237 241 244 246 249 251 252 252 251 249 250 252 255 257 259 261 262 264 265 266 267 268 269 270 272 273 274 276 277 278 278 279 278 278 278 278 278 279 280 280 280 281 281 282 283 284 286
219 214 208 204 203 204 206 207 207 208 210 211 212 213 214 216 216 217 220 222 224 225 225 226 227 229 231 230 227 226 227 227 227 228 231 233 236 237 237 238 241 244 247 250 252 254 255 255 254 254 255 256 258 259 261 262 263 265 266 267 268 269 270 271 272 273 275 276 277 278 278 279 279 279 279 279 280 280 280 280 281 281 282 284 285 286
222 218 211 205 204 205 205 207 209 210 212 214 215 216 216 218 219 220 222 224 226 228 228 228 229 230 232 232 230 229 230 229 228 228 230 233 236 239 241 242 243 245 247 250 252 254 256 256 256 256 256 258 259 260 262 263 264 265 266 267 268 270 271 272 273 274 275 276 277 277 278 278 279 280 280 281 281 281 281 282 282 283 284 285 286 287
224 220 215 208 205 205 205 206 207 209 212 215 217 218 218 219 220 221 224 226 228 229 230 230 230 231 233 234 232 232 232 232 231 230 230 233 236 239 242 245 246 248 249 251 253 254 255 255 255 256 257 259 260 261 262 263 264 265 266 268 269 271 272 273 274 275 276 276 276 276 277 277 278 279 280 281 282 282 283 284 284 285 285 286 286 287
222 219 216 210 207 206 205 206 208 209 211 213 215 217 218 220 221 221 223 225 228 230 230 230 231 232 234 235 233 232 233 234 234 234 233 234 236 239 243 246 248 248 250 252 253 255 255 255 255 256 257 259 261 262 263 264 265 266 268 269 271 272 273 274 275 276 276 276 275 275 276 276 277 278 279 280 281 282 283 283 284 285 286 286 286 287
219 220 216 211 209 208 206 206 208 210 213 215 216 217 218 221 222 222 224 226 228 230 231 231 232 233 234 235 235 234 235 236 237 238 237 237 237 239 242 245 247 249 250 252 254 256 256 256 256 256 258 259 261 263 264 265 266 268 270 271 273 274 275 276 276 276 276 276 275 276 276 276 277 277 278 279 279 280 281 282 283 283 284 284 285 285
215 216 216 212 209 209 208 208 209 210 213 216 217 218 220 223 223 224 226 227 228 231 232 233 233 234 234 236 237 238 239 239 239 240 241 241 240 241 242 244 246 249 251 253 255 257 258 258 258 258 259 261 262 263 265 266 268 269 271 273 274 275 275 276 276 276 276 276 276 277 277 277 277 278 278 279 279 280 280 281 282 282 282 283 283 284
213 212 215 213 211 210 209 210 211 212 214 216 218 219 221 223 225 226 229 230 231 233 234 235 235 235 235 237 240 241 241 241 241 242 243 243 244 244 245 247 248 249 251 253 256 257 258 259 259 260 261 262 263 264 265 266 268 270 272 273 274 275 275 276 276 276 277 278 278 278 278 278 278 278 278 279 279 280 281 281 282 282 282 283 283 284
214 212 213 214 212 212 212 212 212 214 216 218 220 221 222 224 226 227 229 231 233 234 235 237 237 237 236 238 240 242 243 243 243 244 244 245 245 246 247 249 250 251 252 254 256 257 258 259 259 260 260 261 262 263 264 266 267 269 271 272 273 274 275 275 276 277 278 278 278 278 278 278 278 278 279 279 279 280 281 281 282 282 282 283 283 284
215 214 214 214 214 214 215 214 214 216 218 220 223 225 226 228 230 231 232 233 235 236 237 239 239 238 238 239 241 243 244 245 245 246 247 247 247 247 248 250 251 253 254 255 256 257 258 258 259 259 260 261 262 263 264 266 268 270 271 272 273 274 274 275 276 277 277 278 278 278 278 278 279 279 279 280 280 280 281 281 282 282 283 284 285 285
214 214 214 214 215 215 216 216 217 218 219 220 223 225 226 228 230 232 234 235 237 239 240 242 241 239 239 240 241 243 245 245 246 246 247 248 248 249 250 251 253 254 255 256 257 257 257 257 258 258 259 261 262 264 266 268 269 270 271 271 272 273 273 274 276 276 276 277 277 277 277 277 278 278 279 280 280 281 281 282 283 283 284 285 285 286
214 214 214 215 215 215 216 217 217 218 219 220 222 224 226 228 229 231 232 234 236 238 240 242 242 239 239 241 242 243 244 245 246 246 247 248 249 250 251 252 253 254 255 256 256 256 257 258 259 260 261 262 264 265 266 267 268 269 270 270 271 272 273 274 275 275 275 275 275 275 275 276 276 277 278 278 279 280 281 282 283 283 284 285 286 287
216 215 215 215 215 215 215 216 218 218 219 221 222 223 226 228 230 232 233 234 236 236 237 240 240 239 240 243 244 244 244 244 246 247 248 249 250 251 252 253 253 254 254 255 255 256 258 259 260 261 262 263 264 265 266 266 267 268 269 270 271 272 273 274 274 274 274 274 274 274 274 275 275 276 277 277 278 279 280 282 283 284 285 286 287 288
220 219 219 219 219 219 219 221 222 221 221 222 222 223 225 227 230 233 235 236 237 237 239 241 241 241 242 245 247 247 245 244 245 247 249 250 251 252 252 252 252 253 254 256 257 258 259 260 261 262 263 264 264 265 265 266 267 268 269 270 271 272 273 273 273 273 273 273 273 274 275 275 276 277 277 278 280 281 283 284 285 286 287 287 288 288
222 223 223 224 226 227 227 228 228 227 226 226 227 228 230 232 234 236 237 238 239 240 242 242 243 243 243 246 248 249 248 247 247 247 249 249 250 250 251 252 253 254 255 257 258 259 260 260 261 261 262 262 263 263 264 265 267 268 269 270 271 271 271 271 272 272 272 273 274 274 275 276 277 278 280 281 283 284 285 286 286 287 287 288 288 289
222 224 225 226 228 230 230 230 230 230 231 231 231 232 234 236 238 239 241 242 242 244 244 243 244 245 244 245 249 250 250 249 248 248 248 248 248 249 251 252 254 255 256 256 257 258 259 259 259 260 260 261 262 263 264 265 266 267 268 269 269 270 270 270 271 272 272 273 274 275 277 278 279 280 282 283 284 285 286 286 287 288 288 289 289 289
225 227 228 228 229 229 229 229 229 230 231 230 230 231 232 234 236 238 240 241 241 244 244 243 243 244 243 244 247 248 248 247 247 248 248 249 251 252 253 253 254 255 255 255 255 255 256 257 257 259 260 261 262 263 264 265 266 267 267 268 268 269 269 270 271 272 273 274 275 277 278 279 280 281 282 283 284 285 286 287 288 288 288 288 288 288
227 229 230 229 229 231 231 231 231 231 232 232 232 231 231 232 234 236 237 238 240 243 244 243 243 243 243 244 246 249 250 250 250 251 251 251 253 254 255 255 254 253 252 252 252 253 254 256 258 260 261 262 262 263 264 265 266 266 267 267 268 269 270 271 272 273 274 276 277 278 279 280 281 282 283 284 285 286 287 287 287 287 287 288 288 288
227 229 230 230 230 231 232 232 233 232 233 234 234 234 234 235 236 238 239 241 242 245 246 247 247 247 248 250 251 253 255 255 253 252 252 252 252 253 253 253 252 251 250 251 252 254 256 258 259 260 260 261 261 262 263 264 265 266 266 267 268 269 271 272 274 275 276 277 279 280 281 282 283 284 285 285 286 286 286 286 287 287 288 288 288 289
227 229 231 232 233 234 234 235 236 235 235 235 235 236 238 239 241 244 245 246 247 249 249 250 251 252 253 254 253 253 254 253 252 252 252 251 250 249 249 249 250 250 252 253 255 257 258 258 258 258 259 259 261 262 263 264 264 265 266 268 269 271 273 274 275 277 278 279 280 281 282 283 284 284 285 285 285 286 286 287 288 288 288 288 289 290
230 231 233 234 236 237 238 239 240 240 239 239 238 241 244 246 246 247 247 247 249 250 250 251 253 254 253 251 249 250 252 251 251 252 252 251 250 249 249 250 251 252 254 255 256 256 257 257 257 258 259 260 262 262 263 264 266 267 268 270 271 273 274 275 277 278 279 280 281 282 283 283 284 284 285 285 286 286 287 287 288 288 288 288 289 290
232 233 234 235 237 238 239 240 241 241 242 244 244 245 247 247 247 247 248 249 249 250 251 252 252 251 250 249 248 248 250 251 252 251 251 252 253 252 252 251 252 253 254 255 256 256 256 257 258 260 261 262 262 263 264 266 268 269 270 272 273 274 275 277 278 279 280 281 282 282 283 283 284 284 285 286 286 287 287 287 287 287 288 289 290 291
231 232 234 235 237 238 238 239 240 242 245 248 247 246 247 247 247 249 250 249 249 249 250 250 250 249 250 251 251 250 251 252 252 252 252 253 253 253 253 252 253 254 255 256 257 258 259 259 260 261 261 262 263 265 266 268 269 271 272 273 274 275 277 278 279 280 281 281 282 282 283 283 284 284 285 285 286 286 287 287 287 288 289 290 291 292
232 233 234 235 236 237 237 237 240 243 246 246 245 246 247 249 250 250 250 249 249 249 250 251 252 252 252 253 252 252 252 251 251 251 252 252 253 254 254 254 255 255 256 257 258 259 260 261 261 262 263 264 265 267 268 269 270 272 273 274 276 277 278 279 280 281 281 281 281 282 282 283 283 284 284 285 285 286 287 287 288 289 290 291 291 292
236 237 238 238 239 239 241 241 242 243 242 242 244 245 246 248 250 251 251 249 248 249 251 252 252 252 251 251 251 251 251 251 251 251 252 254 254 255 255 256 256 256 257 258 259 259 261 261 262 263 264 266 267 268 269 270 272 273 275 276 278 279 279 280 280 280 281 281 281 281 282 282 283 283 284 284 285 286 287 288 289 290 290 291 292 292
241 241 242 243 243 243 244 245 245 244 241 241 245 248 249 250 250 252 252 249 246 248 250 251 252 252 251 251 250 251 251 252 252 253 255 256 256 256 256 257 257 257 258 259 260 261 262 263 263 264 265 266 267 269 270 272 273 275 276 277 278 279 279 280 280 280 280 280 281 281 281 282 282 283 284 285 285 286 287 288 289 290 291 291 292 293
243 243 243 244 245 245 247 248 249 249 245 244 247 249 251 253 253 254 255 251 247 248 249 250 252 251 250 250 250 250 252 253 255 256 256 255 256 256 257 258 258 259 260 261 262 264 264 265 265 266 267 268 269 270 271 272 274 275 276 277 278 278 279 279 279 279 279 279 280 280 281 281 282 283 284 285 286 287 288 289 290 290 291 292 293 294
244 244 244 245 247 250 251 252 254 254 250 248 250 250 252 253 252 252 254 255 253 252 250 251 252 251 250 250 250 250 252 254 256 256 255 255 256 257 258 259 260 261 262 263 264 265 266 266 267 268 269 269 270 271 272 273 274 275 276 276 277 277 277 277 278 278 278 279 280 280 281 282 283 284 285 286 288 289 289 290 291 292 293 294 295 295
244 245 246 248 250 251 252 254 256 255 252 252 253 252 252 252 250 252 257 260 259 257 254 252 251 250 250 250 250 251 252 253 255 255 256 257 258 259 260 261 262 262 263 264 265 266 266 267 268 269 270 270 271 272 273 274 275 275 275 275 276 276 276 277 277 278 279 280 281 282 283 284 285 286 287 288 289 290 290 291 292 294 294 295 295 295
244 245 247 248 248 250 252 253 255 254 251 252 254 254 253 252 252 254 258 258 257 257 255 252 251 251 250 250 251 251 252 252 253 255 256 257 258 259 261 262 263 263 264 265 266 267 268 268 269 270 270 271 272 272 273 274 274 274 275 275 276 276 277 277 278 279 280 281 282 283 285 286 287 288 288 289 290 290 291 292 293 293 293 293 293 294
244 245 247 248 249 251 251 252 254 253 251 252 256 257 257 258 258 257 256 255 255 254 253 252 252 251 249 249 249 250 251 252 253 254 255 256 258 259 260 261 263 264 265 266 267 267 268 269 269 270 270 271 271 272 272 273 274 274 275 276 276 277 278 279 280 280 281 282 283 284 285 286 287 288 288 289 290 290 291 292 292 292 292 293 293 293
243 244 247 249 250 251 251 253 256 257 255 254 255 256 258 260 261 259 256 255 254 251 250 250 250 250 250 249 248 248 249 251 252 254 255 256 257 258 259 261 262 264 265 266 266 267 268 268 269 269 270 270 271 272 273 273 274 275 275 276 277 277 278 279 280 281 282 283 284 285 285 286 287 287 288 289 289 290 291 291 291 291 292 292 292 293
246 248 250 251 252 253 254 256 257 257 256 254 253 253 255 257 259 259 258 257 256 254 251 250 249 250 251 251 250 249 249 250 252 253 254 256 257 258 259 261 262 263 265 266 266 267 267 268 268 269 270 271 272 272 273 274 274 275 276 276 277 278 279 280 281 281 282 283 283 284 285 285 286 287 288 289 289 290 290 290 291 291 291 292 293 293
248 249 250 250 251 253 254 255 255 255 256 255 255 255 257 258 259 261 261 261 260 259 257 255 253 253 254 255 255 254 253 252 253 254 254 256 257 258 259 261 262 263 264 266 267 268 268 269 270 270 271 272 272 273 274 274 275 276 276 277 278 279 279 280 281 281 282 282 283 284 285 285 286 287 288 289 289 289 290 290 290 291 292 293 294 295
246 247 249 250 250 252 253 255 256 256 256 257 257 258 260 260 260 261 262 263 262 262 261 259 258 257 257 258 259 259 258 257 257 257 257 258 258 259 260 261 262 263 264 265 266 267 268 269 270 270 271 271 272 272 273 274 275 276 276 277 278 279 280 280 281 281 282 283 284 285 285 286 287 288 288 288 288 289 289 290 291 292 293 294 295 295
246 246 248 249 251 252 254 255 255 255 256 257 257 258 259 260 260 260 260 261 262 262 262 262 260 259 259 259 260 260 261 261 260 260 260 260 260 261 261 261 262 263 264 265 266 267 269 269 270 271 272 272 273 273 274 275 275 276 277 278 278 279 279 280 281 282 283 283 284 285 286 286 287 287 287 287 288 288 289 290 292 293 294 295 296 296
247 247 247 249 250 251 252 253 253 254 254 255 256 257 258 259 259 260 260 260 261 262 262 262 262 262 261 261 261 262 262 263 263 262 262 262 262 262 262 262 263 263 264 265 266 267 269 270 271 272 273 274 275 275 276 276 277 277 278 278 278 279 279 280 281 282 283 284 285 285 286 286 286 286 287 287 288 289 291 292 293 294 295 296 296 296
248 248 249 249 249 250 251 252 252 252 253 253 254 255 256 257 259 259 260 260 261 261 262 263 263 264 264 264 264 264 264 264 264 263 263 264 264 264 264 264 264 264 264 265 266 267 268 269 271 272 273 274 275 276 276 277 277 277 278 278 279 280 280 281 282 282 283 284 285 285 286 286 286 287 288 289 290 291 292 293 294 294 295 295 296 296
249 249 250 250 250 251 251 251 251 251 251 252 252 252 254 255 257 258 259 260 261 262 263 263 264 264 264 264 264 264 264 264 265 265 265 265 266 266 267 267 267 268 268 268 269 269 270 270 271 272 273 274 274 275 276 276 277 278 278 279 279 279 280 280 282 283 284 285 286 286 286 287 287 288 289 290 291 292 292 293 294 295 295 295 296 296
Height
5767 5770 5774 5780 5786 5790 5794 5799 5803 5807 5809 5813 5819 5823 5826 5829 5833 5836 5839 5841 5843 5845 5847 5850 5852 5853 5855 5858 5859 5861 5864 5867 5869 5870 5872 5873 5874 5876 5877 5878 5879 5880 5881 5882 5883 5884 5885 5886 5886 5886 5887 5888 5889 5889 5889 5890 5890 5890 5890 5890 5890 5890 5890 5890 5890 5890 5890 5890 5890 5890 5890 5890 5890 5889 5889 5889 5889 5888 5888 5887 5887 5886 5885 5885 5884 5884
5764 5768 5774 5780 5785 5790 5793 5796 5801 5804 5806 5810 5815 5819 5823 5827 5831 5834 5836 5839 5841 5843 5845 5846 5847 5849 5853 5856 5857 5858 5862 5865 5866 5868 5869 5871 5873 5874 5875 5877 5878 5879 5879 5880 5881 5882 5883 5883 5884 5885 5885 5886 5886 5887 5887 5888 5888 5889 5888 5888 5889 5889 5889 5888 5888 5888 5888 5888 5888 5888 5888 5888 5888 5888 5887 5887 5887 5886 5886 5885 5884 5884 5883 5883 5882 5882
5761 5767 5774 5779 5783 5787 5790 5794 5798 5801 5803 5806 5811 5815 5819 5824 5827 5830 5832 5834 5837 5839 5841 5842 5844 5847 5850 5853 5854 5856 5860 5862 5863 5865 5867 5868 5870 5872 5874 5875 5876 5877 5878 5878 5879 5880 5881 5881 5882 5883 5883 5884 5884 5885 5885 5886 5886 5887 5887 5887 5887 5887 5887 5887 5887 5886 5886 5886 5886 5886 5886 5885 5885 5885 5885 5885 5884 5884 5883 5883 5882 5881 5881 5881 5880 5879
5761 5767 5772 5775 5779 5783 5787 5791 5795 5797 5800 5804 5808 5811 5816 5820 5823 5827 5830 5832 5834 5836 5838 5840 5843 5845 5846 5849 5852 5855 5857 5859 5861 5863 5864 5865 5867 5869 5871 5873 5874 5875 5876 5877 5877 5878 5879 5879 5880 5880 5881 5882 5882 5883 5883 5884 5884 5885 5885 5885 5885 5885 5885 5885 5885 5884 5884 5884 5883 5883 5883 5883 5882 5882 5882 5882 5881 5881 5880 5880 5879 5879 5879 5878 5877 5877
5760 5765 5768 5770 5774 5779 5783 5787 5790 5793 5796 5801 5805 5809 5813 5817 5821 5825 5828 5830 5831 5833 5835 5838 5840 5842 5844 5846 5850 5852 5854 5856 5858 5860 5861 5863 5865 5867 5869 5870 5871 5873 5874 5875 5876 5876 5877 5877 5878 5878 5879 5879 5880 5880 5881 5881 5882 5882 5882 5883 5883 5883 5883 5882 5882 5882 5882 5882 5881 5881 5881 5880 5880 5880 5879 5879 5878 5878 5877 5876 5876 5876 5876 5875 5874 5874
5755 5760 5763 5766 5770 5774 5778 5783 5787 5791 5794 5798 5802 5807 5811 5815 5818 5822 5824 5826 5828 5830 5832 5835 5837 5839 5842 5844 5847 5849 5850 5852 5854 5857 5858 5860 5862 5864 5866 5867 5869 5870 5871 5872 5873 5874 5874 5875 5875 5876 5876 5877 5877 5878 5878 5879 5879 5879 5879 5880 5880 5881 5880 5880 5880 5880 5879 5879 5879 5879 5879 5878 5878 5877 5877 5876 5876 5875 5875 5874 5873 5873 5872 5871 5871 5870
5750 5755 5759 5762 5767 5771 5775 5779 5783 5788 5792 5795 5799 5805 5809 5812 5815 5819 5821 5824 5825 5827 5830 5832 5833 5837 5840 5841 5843 5845 5847 5850 5851 5853 5855 5857 5860 5862 5863 5864 5866 5867 5868 5869 5870 5871 5871 5872 5872 5873 5874 5874 5875 5875 5875 5876 5876 5876 5877 5877 5877 5878 5878 5877 5877 5877 5877 5877 5877 5877 5876 5876 5875 5875 5874 5874 5873 5873 5872 5871 5871 5870 5869 5868 5867 5866
5746 5750 5754 5758 5763 5768 5772 5776 5780 5784 5788 5792 5798 5803 5807 5809 5812 5816 5819 5820 5822 5824 5826 5828 5830 5833 5835 5837 5839 5842 5844 5847 5849 5851 5853 5855 5858 5859 5860 5862 5863 5864 5865 5866 5868 5868 5868 5869 5870 5870 5871 5871 5872 5872 5872 5873 5873 5874 5874 5874 5874 5875 5875 5875 5874 5874 5874 5874 5874 5874 5874 5873 5872 5872 5872 5871 5870 5869 5869 5868 5868 5867 5866 5865 5864 5863
5744 5747 5750 5755 5759 5764 5770 5774 5777 5781 5785 5790 5796 5801 5804 5806 5809 5813 5816 5816 5818 5819 5821 5824 5827 5828 5832 5835 5836 5838 5841 5844 5847 5850 5851 5853 5854 5856 5857 5859 5860 5861 5862 5864 5865 5866 5866 5866 5867 5867 5868 5868 5869 5869 5870 5870 5870 5870 5870 5871 5871 5871 5872 5872 5871 5871 5871 5871 5871 5871 5870 5870 5869 5869 5868 5868 5867 5866 5865 5865 5864 5863 5862 5861 5860 5859
5740 5743 5747 5751 5756 5762 5767 5770 5774 5780 5784 5788 5793 5797 5800 5802 5805 5808 5810 5812 5813 5814 5817 5821 5824 5824 5828 5832 5833 5835 5839 5842 5845 5847 5848 5850 5851 5853 5854 5855 5857 5858 5859 5861 5862 5863 5863 5864 5864 5864 5865 5865 5866 5866 5866 5867 5867 5867 5867 5867 5867 5867 5868 5868 5868 5868 5868 5868 5868 5867 5867 5866 5866 5865 5865 5864 5863 5862 5862 5861 5860 5859 5858 5857 5856 5855
5736 5739 5743 5748 5754 5759 5763 5766 5771 5776 5780 5785 5789 5793 5795 5798 5801 5804 5806 5808 5809 5810 5814 5819 5820 5821 5823 5828 5830 5832 5837 5840 5842 5843 5845 5848 5849 5850 5851 5852 5853 5855 5856 5858 5859 5860 5861 5861 5861 5861 5862 5862 5862 5863 5863 5863 5864 5864 5863 5863 5863 5863 5863 5864 5864 5864 5864 5864 5863 5863 5863 5862 5862 5861 5860 5860 5859 5858 5858 5857 5856 5855 5854 5853 5852 5851
5732 5735 5740 5745 5750 5754 5758 5763 5768 5773 5777 5781 5785 5788 5792 5795 5798 5800 5802 5804 5804 5806 5811 5815 5816 5816 5818 5823 5828 5830 5833 5837 5838 5840 5843 5845 5846 5846 5848 5849 5850 5851 5853 5854 5855 5856 5857 5858 5858 5858 5859 5859 5859 5859 5860 5860 5860 5860 5860 5860 5860 5860 5860 5860 5860 5859 5859 5859 5859 5859 5859 5858 5857 5857 5856 5855 5855 5854 5853 5853 5852 5851 5850 5849 5848 5846
5729 5732 5737 5742 5746 5750 5754 5759 5764 5768 5772 5776 5780 5784 5787 5790 5793 5795 5797 5799 5800 5802 5807 5811 5812 5812 5813 5819 5825 5827 5830 5834 5836 5838 5840 5841 5842 5843 5845 5846 5847 5848 5849 5851 5852 5853 5853 5854 5855 5855 5855 5856 5856 5856 5856 5857 5857 5857 5857 5857 5856 5856 5856 5856 5856 5856 5856 5855 5855 5854 5854 5854 5853 5852 5852 5851 5851 5850 5849 5848 5847 5846 5845 5844 5843 5842
5725 5728 5733 5738 5743 5747 5751 5756 5760 5764 5768 5772 5776 5780 5783 5785 5787 5790 5792 5794 5796 5799 5803 5807 5808 5808 5810 5815 5822 5825 5827 5830 5833 5835 5837 5838 5838 5839 5841 5843 5844 5845 5846 5847 5848 5849 5849 5850 5850 5851 5851 5852 5852 5853 5853 5853 5853 5853 5853 5853 5853 5853 5853 5853 5853 5853 5852 5852 5851 5850 5850 5849 5848 5848 5847 5847 5846 5845 5844 5843 5842 5841 5840 5839 5838 5837
5723 5726 5731 5735 5739 5744 5749 5754 5759 5764 5768 5771 5774 5777 5779 5781 5784 5787 5790 5792 5795 5798 5801 5803 5804 5805 5807 5813 5819 5823 5825 5827 5830 5832 5833 5834 5835 5836 5837 5839 5841 5842 5843 5844 5844 5845 5845 5846 5846 5847 5847 5848 5848 5849 5849 5849 5849 5849 5850 5850 5850 5850 5850 5850 5849 5849 5849 5848 5847 5846 5846 5845 5844 5844 5843 5842 5841 5841 5840 5839 5838 5836 5835 5834 5833 5832
5722 5726 5730 5733 5736 5741 5746 5750 5755 5759 5763 5766 5769 5772 5775 5778 5782 5785 5788 5790 5793 5795 5796 5798 5799 5802 5805 5810 5816 5820 5821 5823 5826 5828 5829 5831 5832 5833 5834 5835 5837 5838 5839 5840 5840 5841 5842 5842 5842 5843 5843 5844 5844 5845 5845 5845 5845 5846 5846 5846 5846 5846 5846 5846 5846 5845 5845 5844 5843 5842 5842 5841 5840 5840 5839 5838 5837 5836 5835 5834 5833 5832 5831 5829 5828 5827
5719 5723 5727 5731 5734 5737 5741 5746 5750 5753 5756 5759 5762 5766 5770 5774 5777 5780 5783 5785 5787 5788 5790 5792 5795 5799 5802 5806 5811 5815 5817 5819 5821 5824 5826 5827 5829 5830 5831 5832 5833 5834 5834 5835 5836 5837 5838 5838 5839 5839 5840 5840 5840 5841 5841 5841 5841 5842 5842 5842 5842 5842 5842 5842 5842 5841 5840 5840 5839 5838 5837 5837 5836 5835 5834 5834 5833 5832 5831 5829 5828 5827 5826 5825 5823 5822
5716 5720 5724 5728 5731 5735 5739 5742 5746 5750 5753 5755 5758 5763 5767 5769 5772 5776 5779 5780 5782 5783 5786 5789 5792 5796 5798 5801 5806 5811 5814 5816 5818 5820 5822 5824 5825 5827 5827 5828 5828 5829 5830 5831 5832 5833 5834 5834 5835 5835 5836 5836 5837 5837 5837 5837 5837 5837 5838 5838 5838 5838 5838 5837 5837 5836 5835 5835 5834 5833 5833 5832 5831 5831 5830 5829 5828 5827 5826 5825 5824 5822 5821 5820 5818 5816
5713 5717 5720 5724 5727 5731 5736 5739 5742 5745 5749 5752 5757 5761 5764 5765 5769 5772 5774 5776 5778 5780 5782 5786 5788 5791 5794 5798 5804 5808 5810 5813 5814 5816 5818 5820 5821 5822 5823 5823 5824 5825 5825 5826 5828 5828 5829 5830 5831 5831 5832 5832 5833 5833 5833 5833 5833 5833 5833 5834 5834 5833 5833 5833 5832 5831 5830 5830 5829 5829 5828 5827 5826 5825 5824 5824 5823 5822 5821 5820 5819 5817 5816 5814 5812 5811
5709 5713 5716 5721 5724 5727 5730 5734 5738 5741 5745 5748 5752 5756 5759 5762 5766 5769 5771 5773 5776 5778 5780 5782 5783 5787 5792 5797 5801 5804 5806 5809 5811 5812 5814 5815 5816 5817 5818 5819 5820 5820 5821 5822 5823 5824 5825 5826 5827 5827 5828 5828 5828 5828 5829 5829 5829 5830 5830 5830 5829 5829 5828 5828 5827 5827 5826 5826 5825 5824 5823 5822 5821 5820 5819 5818 5817 5817 5816 5815 5813 5812 5810 5809 5807 5805
5706 5709 5713 5717 5720 5723 5726 5731 5736 5740 5743 5746 5749 5752 5755 5759 5762 5765 5767 5769 5771 5774 5776 5777 5778 5784 5790 5795 5797 5800 5802 5805 5807 5809 5810 5811 5812 5813 5813 5814 5815 5816 5817 5818 5819 5820 5821 5821 5822 5822 5823 5823 5824 5824 5825 5825 5825 5826 5826 5825 5825 5824 5824 5823 5823 5822 5822 5821 5820 5819 5818 5817 5816 5815 5814 5813 5812 5811 5810 5809 5808 5807 5805 5803 5801 5800
5703 5707 5710 5713 5717 5720 5724 5729 5734 5737 5740 5744 5747 5750 5754 5757 5760 5762 5764 5766 5768 5770 5771 5772 5775 5781 5787 5791 5794 5796 5799 5801 5803 5804 5805 5806 5807 5808 5808 5809 5810 5811 5813 5814 5815 5815 5816 5816 5817 5817 5818 5819 5819 5820 5820 5821 5821 5821 5821 5820 5820 5819 5819 5818 5818 5818 5817 5816 5815 5814 5813 5812 5811 5810 5809 5808 5807 5806 5805 5804 5802 5801 5799 5798 5796 5794
5700 5704 5707 5710 5714 5718 5721 5725 5729 5732 5736 5740 5742 5746 5750 5752 5755 5757 5759 5762 5764 5765 5767 5768 5771 5777 5783 5787 5790 5792 5795 5797 5799 5800 5800 5801 5802 5803 5804 5805 5806 5807 5808 5809 5809 5810 5810 5811 5812 5812 5813 5814 5815 5816 5816 5816 5816 5816 5815 5815 5815 5814 5814 5814 5813 5813 5812 5811 5810 5809 5808 5807 5806 5805 5804 5803 5802 5801 5800 5798 5797 5795 5793 5792 5790 5787
5698 5701 5703 5707 5711 5714 5717 5720 5724 5728 5731 5734 5738 5742 5744 5746 5750 5752 5753 5756 5758 5759 5763 5764 5766 5772 5780 5783 5785 5788 5790 5793 5794 5795 5796 5797 5798 5798 5799 5801 5802 5802 5803 5803 5804 5804 5805 5806 5807 5808 5809 5810 5811 5811 5811 5810 5810 5810 5810 5809 5809 5809 5809 5808 5808 5807 5806 5805 5804 5803 5803 5802 5801 5800 5799 5798 5797 5795 5794 5792 5791 5789 5787 5785 5783 5781
5695 5696 5699 5703 5705 5708 5711 5714 5718 5722 5726 5730 5734 5736 5738 5741 5744 5745 5747 5751 5752 5754 5759 5759 5760 5769 5777 5778 5780 5783 5787 5789 5789 5790 5791 5792 5793 5794 5795 5796 5797 5797 5797 5798 5799 5800 5801 5802 5803 5804 5805 5805 5805 5805 5805 5805 5805 5804 5804 5804 5804 5804 5803 5803 5802 5801 5800 5799 5799 5798 5797 5796 5795 5794 5793 5792 5791 5790 5788 5787 5785 5783 5781 5779 5776 5774
5692 5694 5696 5699 5700 5702 5705 5709 5713 5718 5722 5725 5728 5731 5734 5737 5739 5742 5745 5746 5748 5752 5755 5755 5759 5769 5775 5775 5775 5778 5782 5784 5785 5786 5787 5788 5788 5789 5790 5790 5791 5792 5793 5794 5795 5796 5797 5798 5799 5799 5799 5799 5799 5799 5799 5799 5799 5799 5799 5799 5799 5798 5797 5797 5796 5795 5794 5794 5793 5792 5791 5791 5790 5788 5787 5786 5785 5783 5782 5780 5778 5776 5774 5772 5769 5767
5689 5692 5695 5697 5699 5703 5707 5712 5716 5719 5721 5723 5727 5731 5733 5736 5738 5740 5740 5741 5747 5751 5750 5754 5761 5767 5771 5771 5770 5774 5778 5779 5781 5782 5782 5783 5783 5783 5784 5785 5786 5788 5789 5790 5791 5791 5792 5793 5793 5793 5793 5793 5793 5793 5793 5793 5793 5793 5793 5793 5793 5792 5791 5791 5790 5789 5788 5788 5787 5786 5785 5784 5783 5782 5781 5779 5778 5777 5775 5773 5771 5769 5767 5764 5762 5759
5684 5687 5691 5695 5698 5702 5707 5711 5713 5716 5718 5722 5726 5729 5731 5733 5734 5735 5735 5740 5746 5745 5745 5753 5760 5762 5766 5767 5766 5769 5773 5773 5775 5776 5776 5776 5776 5777 5779 5781 5783 5784 5784 5785 5786 5786 5787 5787 5787 5787 5787 5787 5787 5788 5788 5788 5788 5788 5787 5787 5787 5786 5785 5785 5784 5783 5782 5782 5781 5780 5779 5778 5777 5775 5774 5773 5771 5769 5768 5766 5764 5762 5759 5757 5754 5752
5681 5684 5688 5692 5695 5698 5701 5704 5706 5709 5712 5715 5718 5721 5724 5725 5726 5728 5731 5737 5740 5737 5741 5752 5755 5754 5759 5761 5762 5764 5766 5767 5769 5769 5769 5771 5772 5774 5776 5777 5778 5778 5779 5779 5779 5780 5780 5780 5780 5781 5781 5782 5782 5782 5782 5782 5782 5782 5781 5781 5780 5780 5779 5778 5778 5777 5776 5776 5774 5773 5772 5771 5770 5769 5767 5765 5764 5762 5760 5759 5756 5754 5752 5749 5747 5744
5678 5681 5684 5688 5691 5694 5696 5698 5701 5704 5706 5709 5711 5714 5717 5718 5720 5723 5726 5731 5733 5732 5738 5746 5746 5747 5753 5757 5759 5760 5759 5762 5764 5763 5765 5768 5769 5770 5771 5771 5771 5771 5771 5772 5772 5773 5774 5775 5775 5776 5776 5776 5776 5776 5776 5776 5776 5775 5775 5774 5774 5773 5773 5772 5772 5771 5770 5769 5768 5767 5766 5764 5763 5762 5760 5758 5757 5755 5753 5751 5749 5746 5744 5741 5739 5736
5674 5676 5678 5683 5686 5687 5690 5693 5696 5698 5701 5703 5705 5708 5710 5713 5715 5718 5722 5727 5728 5729 5735 5740 5738 5744 5752 5755 5756 5757 5756 5756 5757 5757 5760 5763 5763 5764 5764 5763 5763 5762 5763 5765 5766 5768 5769 5770 5770 5770 5770 5770 5770 5770 5770 5770 5769 5769 5768 5768 5767 5767 5767 5766 5765 5765 5764 5763 5761 5760 5759 5757 5756 5754 5753 5751 5749 5747 5745 5743 5741 5738 5736 5733 5730 5728
5670 5671 5675 5679 5680 5683 5686 5688 5690 5693 5695 5696 5699 5703 5707 5710 5713 5717 5721 5724 5725 5727 5732 5733 5733 5743 5752 5751 5751 5752 5750 5749 5750 5752 5754 5756 5757 5757 5756 5755 5755 5755 5757 5760 5762 5763 5763 5764 5764 5764 5764 5764 5764 5764 5764 5763 5763 5762 5762 5761 5761 5761 5760 5760 5759 5758 5757 5755 5754 5753 5751 5750 5748 5747 5745 5743 5741 5740 5737 5735 5733 5730 5727 5724 5722 5719
5666 5669 5672 5675 5677 5680 5683 5684 5686 5688 5687 5690 5697 5703 5706 5709 5711 5714 5716 5719 5721 5722 5725 5727 5732 5742 5744 5741 5743 5745 5742 5742 5745 5747 5747 5748 5749 5749 5749 5749 5749 5750 5752 5754 5755 5756 5756 5757 5757 5758 5758 5758 5758 5757 5756 5756 5756 5756 5755 5755 5755 5754 5754 5753 5752 5750 5749 5748 5747 5745 5744 5742 5741 5739 5737 5735 5733 5731 5729 5727 5724 5721 5718 5716 5713 5711
5663 5666 5668 5670 5673 5675 5677 5680 5681 5678 5680 5690 5699 5702 5703 5703 5704 5706 5709 5713 5716 5717 5718 5722 5729 5733 5732 5732 5737 5738 5736 5737 5739 5739 5740 5741 5741 5742 5742 5742 5743 5744 5746 5747 5748 5749 5750 5751 5751 5752 5752 5751 5751 5750 5749 5749 5749 5749 5749 5749 5748 5747 5746 5745 5744 5743 5742 5741 5739 5738 5736 5734 5733 5731 5729 5727 5725 5723 5721 5718 5716 5713 5710 5708 5705 5702
5659 5661 5663 5666 5668 5669 5672 5674 5671 5671 5680 5690 5694 5695 5696 5697 5698 5701 5704 5707 5709 5710 5712 5715 5720 5723 5725 5727 5730 5731 5731 5732 5731 5732 5733 5734 5734 5734 5735 5736 5738 5739 5740 5740 5741 5742 5743 5744 5745 5745 5745 5744 5744 5744 5743 5743 5743 5742 5742 5742 5741 5740 5739 5738 5737 5736 5735 5733 5731 5730 5728 5726 5724 5722 5720 5719 5716 5714 5712 5709 5707 5704 5702 5699 5697 5694
5655 5657 5659 5661 5662 5664 5667 5667 5667 5672 5681 5685 5686 5690 5692 5692 5694 5695 5696 5700 5703 5703 5705 5709 5714 5718 5720 5721 5723 5724 5724 5723 5723 5724 5726 5727 5727 5728 5729 5731 5732 5732 5733 5734 5735 5736 5736 5737 5738 5737 5737 5737 5737 5737 5736 5736 5735 5735 5735 5734 5734 5733 5732 5731 5730 5728 5727 5725 5723 5722 5720 5718 5716 5714 5712 5710 5708 5706 5704 5701 5699 5696 5693 5691 5688 5686
5651 5653 5655 5656 5658 5661 5662 5663 5666 5671 5675 5678 5682 5686 5687 5687 5688 5689 5688 5692 5697 5699 5700 5704 5708 5711 5712 5713 5715 5715 5714 5714 5713 5717 5721 5722 5721 5721 5723 5725 5725 5724 5726 5727 5728 5729 5730 5730 5731 5731 5731 5730 5730 5730 5729 5728 5728 5728 5728 5727 5726 5725 5724 5723 5722 5720 5719 5717 5715 5713 5711 5709 5707 5706 5704 5702 5700 5697 5695 5693 5690 5688 5685 5682 5680 5677
5646 5648 5650 5651 5653 5656 5657 5658 5662 5664 5670 5678 5682 5683 5683 5682 5683 5682 5679 5684 5692 5695 5695 5697 5701 5704 5705 5705 5706 5707 5706 5704 5706 5713 5718 5716 5713 5715 5716 5717 5717 5717 5718 5719 5720 5722 5723 5724 5725 5724 5724 5724 5723 5723 5722 5721 5721 5721 5720 5719 5718 5717 5716 5715 5713 5712 5710 5708 5707 5705 5703 5701 5699 5697 5696 5694 5691 5689 5687 5685 5682 5679 5677 5674 5671 5668
5641 5642 5645 5645 5647 5650 5651 5654 5656 5660 5670 5677 5678 5678 5677 5676 5678 5676 5672 5679 5688 5690 5690 5692 5694 5696 5697 5697 5699 5699 5698 5697 5701 5710 5712 5707 5705 5707 5708 5708 5709 5709 5711 5712 5714 5715 5716 5717 5717 5717 5716 5716 5716 5715 5715 5714 5714 5713 5712 5711 5710 5709 5708 5706 5705 5703 5702 5700 5698 5696 5695 5693 5691 5689 5687 5685 5683 5681 5678 5676 5673 5670 5668 5665 5662 5660
5635 5637 5639 5640 5643 5646 5648 5649 5651 5658 5667 5672 5672 5672 5671 5671 5672 5669 5668 5677 5683 5682 5686 5689 5686 5687 5689 5690 5691 5692 5692 5693 5697 5701 5700 5697 5698 5700 5700 5701 5702 5702 5704 5705 5706 5707 5708 5708 5709 5709 5708 5708 5707 5707 5706 5706 5705 5705 5704 5703 5702 5701 5700 5698 5696 5695 5693 5692 5690 5688 5687 5685 5683 5681 5679 5676 5674 5672 5669 5666 5664 5661 5658 5656 5653 5651
5630 5632 5633 5636 5640 5642 5643 5644 5647 5653 5662 5665 5665 5666 5665 5664 5664 5662 5667 5675 5674 5674 5681 5682 5677 5679 5682 5682 5683 5686 5687 5688 5689 5690 5691 5690 5691 5692 5693 5694 5694 5695 5696 5697 5698 5699 5699 5699 5700 5700 5700 5699 5698 5698 5698 5697 5697 5696 5695 5694 5693 5692 5691 5689 5688 5686 5685 5683 5682 5680 5678 5676 5674 5672 5669 5667 5665 5662 5659 5657 5654 5652 5649 5647 5644 5642
5626 5627 5629 5632 5635 5636 5639 5640 5641 5648 5657 5659 5658 5657 5657 5657 5658 5660 5667 5668 5665 5667 5673 5672 5670 5673 5674 5674 5676 5678 5679 5680 5681 5682 5683 5683 5683 5685 5685 5685 5685 5686 5688 5689 5690 5691 5691 5691 5692 5692 5691 5691 5690 5690 5689 5689 5688 5687 5686 5685 5684 5683 5682 5681 5679 5678 5676 5675 5673 5671 5669 5667 5665 5663 5660 5658 5656 5653 5651 5648 5646 5643 5641 5638 5636 5634
5622 5622 5623 5627 5630 5632 5633 5633 5636 5645 5654 5654 5651 5651 5650 5650 5652 5656 5658 5658 5658 5662 5664 5663 5665 5666 5665 5667 5670 5670 5671 5673 5673 5674 5675 5675 5676 5677 5677 5678 5678 5678 5679 5681 5682 5683 5683 5683 5684 5683 5683 5683 5682 5682 5681 5680 5680 5679 5678 5677 5676 5675 5673 5672 5671 5669 5667 5666 5664 5662 5660 5658 5656 5654 5651 5649 5647 5644 5642 5640 5637 5635 5633 5630 5627 5625
5615 5617 5619 5623 5625 5625 5625 5627 5634 5643 5646 5645 5645 5645 5643 5641 5642 5644 5647 5648 5650 5654 5655 5657 5658 5657 5658 5661 5662 5663 5665 5665 5665 5667 5668 5668 5669 5669 5670 5671 5671 5671 5672 5673 5674 5675 5676 5676 5676 5675 5675 5674 5674 5674 5673 5673 5672 5671 5670 5669 5667 5666 5665 5664 5662 5661 5659 5657 5656 5654 5652 5650 5648 5646 5643 5641 5639 5637 5634 5631 5628 5626 5623 5621 5618 5615
5610 5614 5616 5618 5619 5618 5620 5625 5632 5635 5635 5635 5637 5637 5635 5633 5633 5634 5637 5640 5641 5644 5648 5650 5650 5650 5651 5652 5654 5657 5659 5659 5660 5661 5661 5661 5662 5663 5664 5665 5665 5665 5665 5665 5666 5667 5667 5668 5668 5667 5667 5667 5666 5666 5665 5664 5663 5662 5661 5660 5658 5657 5657 5655 5654 5652 5650 5649 5647 5645 5644 5642 5640 5638 5635 5633 5631 5628 5625 5622 5619 5616 5613 5611 5608 5604
5606 5609 5610 5611 5612 5613 5615 5620 5625 5627 5626 5627 5628 5627 5627 5628 5627 5627 5629 5631 5633 5636 5639 5642 5644 5646 5646 5646 5647 5650 5652 5654 5655 5655 5655 5656 5657 5656 5658 5658 5658 5659 5659 5658 5658 5659 5659 5659 5660 5659 5659 5658 5657 5657 5656 5655 5654 5653 5652 5651 5650 5649 5648 5647 5645 5644 5642 5640 5639 5637 5635 5633 5631 5629 5627 5624 5622 5619 5616 5613 5609 5606 5603 5600 5597 5593
5600 5602 5602 5603 5605 5605 5608 5615 5619 5619 5619 5620 5620 5620 5620 5620 5621 5622 5623 5623 5624 5627 5630 5634 5637 5639 5639 5640 5641 5642 5644 5647 5648 5648 5649 5650 5650 5650 5652 5651 5651 5652 5651 5651 5651 5651 5650 5651 5651 5650 5650 5650 5649 5649 5648 5647 5646 5645 5644 5643 5642 5641 5640 5638 5637 5635 5634 5632 5630 5629 5627 5625 5623 5621 5618 5615 5612 5609 5607 5604 5600 5597 5593 5590 5586 5583
5593 5595 5595 5596 5598 5600 5604 5609 5611 5610 5611 5612 5612 5613 5613 5612 5613 5615 5615 5615 5617 5619 5621 5624 5627 5630 5632 5633 5634 5634 5636 5637 5639 5641 5642 5642 5642 5643 5643 5644 5644 5644 5644 5644 5644 5643 5643 5642 5642 5641 5641 5641 5641 5640 5640 5639 5638 5637 5636 5635 5634 5633 5632 5630 5629 5627 5625 5624 5622 5620 5619 5616 5614 5612 5609 5606 5603 5600 5597 5594 5590 5587 5583 5580 5576 5573
5585 5586 5588 5590 5591 5593 5597 5600 5602 5602 5603 5604 5605 5606 5606 5605 5606 5607 5608 5609 5610 5612 5614 5616 5618 5621 5623 5625 5626 5628 5628 5629 5630 5632 5633 5633 5635 5635 5635 5636 5637 5637 5637 5637 5637 5636 5636 5635 5634 5634 5633 5633 5633 5632 5631 5631 5630 5629 5628 5627 5626 5625 5623 5622 5621 5619 5617 5615 5613 5612 5610 5608 5605 5603 5600 5597 5593 5590 5587 5584 5580 5576 5573 5570 5566 5563
5576 5578 5582 5583 5583 5585 5589 5593 5594 5595 5595 5596 5598 5599 5598 5599 5599 5599 5601 5602 5603 5605 5607 5609 5610 5613 5615 5617 5618 5619 5620 5621 5622 5623 5624 5625 5626 5626 5626 5627 5628 5629 5630 5630 5630 5629 5629 5628 5627 5627 5626 5626 5625 5624 5623 5623 5621 5620 5620 5619 5618 5617 5615 5614 5612 5611 5608 5607 5605 5602 5600 5598 5595 5593 5590 5587 5583 5580 5576 5573 5570 5567 5564 5560 5556 5553
5570 5572 5574 5575 5575 5579 5583 5584 5585 5586 5587 5589 5591 5591 5591 5592 5592 5592 5593 5595 5596 5598 5600 5602 5603 5605 5606 5608 5609 5610 5611 5612 5613 5614 5615 5616 5616 5617 5618 5618 5619 5620 5621 5621 5622 5622 5621 5620 5620 5620 5619 5618 5618 5617 5616 5615 5613 5613 5612 5611 5609 5608 5607 5605 5604 5601 5599 5597 5595 5592 5590 5588 5585 5583 5580 5578 5574 5570 5567 5563 5560 5557 5554 5550 5547 5543